This is the latest recevied weather packets stored in our database for station/object W4JCW. If no packets are shown the sender has not sent any weather packets the latest 10 day(s).
| Time | Temp. | Humidity | Pressure | Rain* | Wind** | Luminosity | Snow |
|---|---|---|---|---|---|---|---|
| 1777997051 | 25.56° C | 49% | 1016.1 hPa | 0 mm | - | 946 W/m² | - |
| 1777996747 | 25.56° C | 50% | 1016.2 hPa | 0 mm | - | 941 W/m² | - |
| 1777996443 | 25° C | 52% | 1016.3 hPa | 0 mm | - | 933 W/m² | - |
| 1777996140 | 25° C | 52% | 1016.1 hPa | 0 mm | - | 921 W/m² | - |
| 1777995836 | 24.44° C | 53% | 1016 hPa | 0 mm | - | 917 W/m² | - |
| 1777995532 | 24.44° C | 53% | 1016.3 hPa | 0 mm | - | 904 W/m² | - |
| 1777995229 | 25° C | 53% | 1016.1 hPa | 0 mm | - | 893 W/m² | - |
| 1777994926 | 25° C | 54% | 1016.3 hPa | 0 mm | - | 879 W/m² | - |
| 1777994624 | 24.44° C | 54% | 1016 hPa | 0 mm | - | 868 W/m² | - |
| 1777994317 | 23.89° C | 55% | 1016.1 hPa | 0 mm | - | 854 W/m² | - |
| 1777994014 | 23.89° C | 56% | 1015.8 hPa | 0 mm | - | 841 W/m² | - |
| 1777993711 | 23.89° C | 56% | 1016.2 hPa | 0 mm | - | 832 W/m² | - |
| 1777993409 | 23.33° C | 56% | 1016.1 hPa | 0 mm | - | 820 W/m² | - |
| 1777993103 | 23.33° C | 56% | 1016 hPa | 0 mm | - | 68 W/m² | - |
| 1777992802 | 23.33° C | 58% | 1016.2 hPa | 0 mm | - | 66 W/m² | - |
| 1777992499 | 22.78° C | 59% | 1015.8 hPa | 0 mm | - | 66 W/m² | - |
| 1777992198 | 22.78° C | 58% | 1016.3 hPa | 0 mm | - | 72 W/m² | - |
| 1777991894 | 22.78° C | 60% | 1016.2 hPa | 0 mm | - | 71 W/m² | - |
| 1777991592 | 22.78° C | 62% | 1016.1 hPa | 0 mm | - | 527 W/m² | - |
| 1777991288 | 22.22° C | 62% | 1016.3 hPa | 0 mm | - | 344 W/m² | - |
| 1777990986 | 22.22° C | 62% | 1016.1 hPa | 0 mm | - | 110 W/m² | - |
| 1777990684 | 21.67° C | 64% | 1016.2 hPa | 0 mm | - | 281 W/m² | - |
| 1777990381 | 21.67° C | 65% | 1016 hPa | 0 mm | - | 340 W/m² | - |
| 1777990075 | 21.67° C | 64% | 1016.1 hPa | 0 mm | - | 434 W/m² | - |
| 1777989772 | 21.67° C | 65% | 1016.1 hPa | 0 mm | - | 445 W/m² | - |
* Rain latest hour (hover to see other rain measurements)
** Current wind speed in m/s (hover to see current wind gust speed)